Regional Weather Roundup
Issued by NWS

Home | Current Version | Previous Version | Graphics & Text | Print | Product List | Glossary On
Versions: 1 2 3 4 5 6 7 8 9 10 11 12 13 14 15 16 17 18 19 20 21 22 23 24 25 26 27 28 29 30 31 32 33 34 35 36 37 38 39 40 41 42 43 44 45 46 47 48 49 50
000
ASUS43 KIND 281759
RWRIN

WEATHER ROUNDUP FOR INDIANA
NATIONAL WEATHER SERVICE INDIANAPOLIS IN
200 PM EDT TUE MAR 28 2017

NOTE: "FAIR" INDICATES FEW OR NO CLOUDS BELOW 12,000 FEET WITH NO
SIGNIFICANT WEATHER AND/OR OBSTRUCTIONS TO VISIBILITY.

* - STATION DOES NOT REPORT WEATHER SUCH AS PRECIPITATION OR FOG.

+ - STATION NOT QUALITY CONTROLLED BY THE NATIONAL WEATHER SERVICE.
    USE DATA WITH CAUTION...ESPECIALLY DEWPOINT AND RELATIVE
    HUMIDITY OBSERVATIONS.

INZ001>003-010>013-019-020-281900-
NORTHWEST INDIANA

CITY           SKY/WX    TMP DP  RH WIND       PRES   REMARKS
GARY /AIRPORT/ CLOUDY    43  37  81 N12       30.14R
KNOX *+        CLOUDY    45  28  53 N8        30.10R
MONTICELLO +   CLOUDY    51  42  70 N12       30.07S
6HR MIN TEMP:  39; 6HR MAX TEMP:  52;


$$

LMZ046-743>745-281900-
SOUTHERN LAKE MICHIGAN

STATION/POSITION TIME  TEMP    WIND        PRES    WAVE
                       AIR SEA DIR/SP/G            HT
                 (UTC) (F)     (DEG/KT/KT) (MB)    (FT)
BURNS HARBOR     1740   38     350/ 10/ 12 1020.7S

$$

INZ004-005-014>016-021>024-281900-
NORTH CENTRAL INDIANA

CITY           SKY/WX    TMP DP  RH WIND       PRES   REMARKS
ELKHART        CLOUDY    46  41  81 N6        30.08S
GOSHEN         CLOUDY    47  40  76 NW5       30.08R
6HR MIN TEMP:  44; 6HR MAX TEMP:  48; 6HR PCP: TRACE;

SOUTH BEND     CLOUDY    44  40  85 N7        30.10S
6HR MIN TEMP:  39; 6HR MAX TEMP:  45;


$$

INZ006>009-017-018-025>027-281900-
NORTHEAST INDIANA

CITY           SKY/WX    TMP DP  RH WIND       PRES   REMARKS
ANGOLA *+      CLOUDY    46  34  61 VRB3      30.07R
FORT WAYNE     CLOUDY    50  44  80 N7        30.06R
6HR MIN TEMP:  48; 6HR MAX TEMP:  50;

KENDALLVILLE + CLOUDY    47  42  84 N5        30.07S

$$

INZ028-029-035-036-043>045-051>053-281900-
WEST CENTRAL INDIANA

CITY           SKY/WX    TMP DP  RH WIND       PRES   REMARKS
CRAWFORDSVL +  CLOUDY    53  47  80 N8        30.07S
6HR MIN TEMP:  43; 6HR MAX TEMP:  53;

GREENCASTLE +  CLOUDY    55  45  67 N8        30.06S
LAFAYETTE      CLOUDY    52  44  74 N12       30.08R
6HR MIN TEMP:  40; 6HR MAX TEMP:  52;

TERRE HAUTE    MOSUNNY   59  47  64 VRB3      30.06S
6HR MIN TEMP:  47; 6HR MAX TEMP:  60;


$$

INZ030>032-037>040-046>048-054>057-064-065-281900-
CENTRAL INDIANA

CITY           SKY/WX    TMP DP  RH WIND       PRES   REMARKS
ANDERSON       CLOUDY    52  46  82 N12       30.05S
CP ATTERBURY + CLOUDY    57  50  77 N9        30.04F
COLUMBUS       CLOUDY    55  54  94 N9        30.04R
INDIANAPOLIS   PTSUNNY   56  46  69 N6        30.05R
6HR MIN TEMP:  50; 6HR MAX TEMP:  58;

-EAGLE CREEK   CLOUDY    57  46  66 N9        30.05R
6HR MIN TEMP:  49; 6HR MAX TEMP:  57;

KOKOMO +       CLOUDY    52  45  77 N9        30.07S
6HR MIN TEMP:  45; 6HR MAX TEMP:  52;

SHELBYVILLE    CLOUDY    56  48  74 N10       30.04R
6HR MIN TEMP:  53; 6HR MAX TEMP:  56;


$$

INZ033-034-041-042-049-050-058-059-281900-
EAST CENTRAL INDIANA

CITY           SKY/WX    TMP DP  RH WIND       PRES   REMARKS
MUNCIE         CLOUDY    53  47  79 N7        30.05R
6HR MIN TEMP:  50; 6HR MAX TEMP:  53;

RICHMOND +     CLOUDY    52  48  87 N9        30.03R FOG

$$

INZ060-061-067>069-081>083-085>088-281900-
SOUTHWEST INDIANA

CITY           SKY/WX    TMP DP  RH WIND       PRES   REMARKS
EVANSVILLE     CLOUDY    57  50  77 N7        30.07S HAZE
6HR MIN TEMP:  54; 6HR MAX TEMP:  57;

HUNTINGBURG *+ CLOUDY    59  54  83 NW7       30.05R
6HR MIN TEMP:  55; 6HR MAX TEMP:  60;


$$

INZ062-063-066-070>080-084-089>092-281900-
SOUTH CENTRAL AND SOUTHEAST INDIANA

CITY           SKY/WX    TMP DP  RH WIND       PRES   REMARKS
BLOOMINGTON    CLOUDY    58  48  69 N8        30.05R
6HR MIN TEMP:  51; 6HR MAX TEMP:  58;

MADISON *+     CLOUDY    59  52  77 NW8       30.04R
SEYMOUR +      CLOUDY    59  50  72 N7        30.03S

$$




USA.gov is the U.S. government's official web portal to all federal, state and local government web resources and services.